Starlink 36104

operational
NORAD ID: 66964 Int'l Des: 2025-288 Owner: SPXS Country: US Constellation: starlink
LEOCIRCULAR

Starlink 36104について

説明を読み込み中...

リアルタイム位置

3D地球を読み込み中...

次回通過

高度履歴

Altitude vs Time

uPlot chart will show altitude changes over time

軌道要素

1 66964C 25288F 25346.09909722 -.01037100 00000+0 -19040-2 0 3469
2 66964 43.0036 171.8478 0001922 270.6090 125.6582 16.01306919 19
Epoch: Dec 12, 2025 • Age: 57 hours

現在のステータス

高度 293.2 km
速度 7.73 km/s
衛星直下点 -39.96°S, 178.99°E
打ち上げ日 Dec 8, 2025
運用期間 5 days
タイプ internet

技術仕様

分類 Payload
質量 575.00 kg
乾燥質量 530.00 kg
総質量 575.00 kg
長さ 0.30 m
直径 4.10 m
スパン 29.00 m
形状 Box + pan
製造者 SPXS
バスタイプ Starlink V2MO
フェーズステータス In Orbit
所有者/国 SPXS/US

大規模コンステレーション

Loading constellations...